STARLINK-2673, 48649

Orbit data source: Space-Track

STARLINK-2673, 48649 is a payload satellite owned by SpaceX/Seattle (US) in LEO that was launched on Wed, 26 May 2021 UTC via an FALCON 9 launch vehicle from the Air Force Eastern Test Range (AFETR). Payload-class satellites include a variety of spacecraft equipped with specific instruments for various scientific and technological missions. These include communications satellites like Starlink; space stations such as the ISS; scientific satellites like the Hubble; Earth observation satellites from companies like Planet Labs, Umbra, and HawkEye 360; GPS; miniature CubeSats for education and research; and military/defense satellites.

Loading next visibility...
Identifier
48649, 2021-044M
Orbit
LEO
Country
Flag of USUS
Related business
Manufacturer
SpaceX/Seattle
Mission
Operational Commercial Communications
Bus & Motor
STARLINK, Unknown motor
Mass
260 kg wet, ~248 kg dry
Launch date (UTC)
2021-05-26 (5 years ago)
Launch vehicle
FALCON 9
Launch site
Air Force Eastern Test Range (AFETR)
Object type
Payload
Rocket body
Debris
Shape & HBR
Box + 1 Pan, 10.1 m
Radar Cross Section
13.562 m², Large (>1 m²)

Expand to show TLE details & history
Last TLE update: 17 hours ago

TLE from 17 hours ago
0 STARLINK-2673
1 48649U 21044M   25349.43378063 -.00000045  00000-0  15890-4 0  9996
2 48649  53.0541 139.8593 0001378  89.9407 270.1740 15.06396438251009
Epoch: 2025-12-15T10:24Z
TLE epoch observation values (Epoch: 2025-12-15T10:24:38.646Z)
Latitude
-0.00001°
Longitude
-100.63414°
Altitude
548.099 km
Speed
7.589 km/s
True Right ascension
09h 19m 26s
True Declination
0° 00' 00"
Sunlit
Object was in full shadow at epoch
Visualization orbit readout
Latitude
Unknown
Longitude
Unknown
Altitude
Unknown
Speed
Unknown
Apparent Right ascension
Unknown
Apparent Declination
Unknown
Sunlit
N/A
Visualization observer readout
Local Sidereal Time
02:29:07
Azimuth
Unknown
Elevation
Unknown
Doppler factor
Unknown
Orbital elements
Apogee altitude
548.448 km
Perigee altitude
546.539 km
Semi-major axis
6,925.63 km
Eccentricity
0.00014
Inclination
53.0541°
RAAN
139.8593°
Arg. of periapsis
89.9407°
True anomaly
270.15821°
Mean anomaly
270.174°
Eccentric anomaly
270.1661°
Mean motion
3.76577 °/min
Orbital period
95.6 mins
BSTAR
0.00001589
Loading maneuver chart data...
Computing Atmospheric mass density...
Loading historical data...
Loading historical data...
Loading historical data...
Loading historical data...
Loading historical data...
Loading historical data...
Loading historical data...

Documentation

Showing up to 5 results
|